Location: Congrier
(47.8099°N, 1.1170°W)
Time: 22:38:50
(UTC+00:00)

Cosmos 1340 Rocket - Pass Details

Date: 28 January 2023
Orbit: 514 x 558 km, 81.2° (Epoch: 01 April)

Event Time Altitude Azimuth Distance (km) Brightness Sun altitude
Rises 17:55:11 0° 163° (SSE) 2,621 6.3 -9.7°
Reaches altitude 10° 17:57:30 10° 152° (SSE) 1,742 5.3 -10.1°
Maximum altitude 18:00:48 28° 92° (E) 996 3.6 -10.6°
Drops below altitude 10° 18:04:08 10° 33° (NNE) 1,770 5.0 -11.2°
Enters shadow 18:04:46 - 29° (NNE) 2,001 5.3 -11.3°
